This demonstration page uses our WeatherBlox Daily Observations layout. Learn more.

Left ArrowRight Arrow

44.89941, -97.11507

Hourly Observations for May 6, 2022

Temp ( °F °C ) Dew Point ( °F °C ) Humidity (%) Winds ( mph kmh ) Pressure ( in mb ) Visibility ( mi km ) Precip ( " mm )
12:53 am 00:53 Cloudy 51 10.6 44 6.7 77 77 Calm 29.94 1014 10 16 0.00 0.00
1:53 am 01:53 Cloudy 51 10.6 45 7.2 80 80 SE 5 7 29.91 1013 10 16 0.00 0.00
2:53 am 02:53 Cloudy 51 10.6 44 6.7 77 77 SE 6 9 29.89 1012 10 16 0.00 0.00
3:53 am 03:53 Cloudy 50 10 45 7.2 83 83 SE 5 7 29.88 1012 10 16 0.00 0.00
4:53 am 04:53 Cloudy 49 9.4 46 7.8 90 90 S 5 7 29.88 1012 10 16 0.00 0.00
5:53 am 05:53 Cloudy 50 10 46 7.8 86 86 S 6 9 29.87 1012 9 14 0.00 0.00
6:53 am 06:53 Cloudy 50 10 47 8.3 89 89 ESE 6 9 29.88 1012 7 11 0.00 0.00
7:45 am 07:45 Cloudy 51 10.6 47 8.3 86 86 ESE 6 9 29.88 1012 7 11 0.00 0.00
7:53 am 07:53 Cloudy with Mist and Fog 51 10.6 47 8.3 86 86 SE 7 11 29.88 1012 6 10 0.00 0.00
8:14 am 08:14 Cloudy with Mist and Fog 51 10.6 48 8.9 89 89 SE 6 9 29.88 1012 6 10 0.00 0.00
8:53 am 08:53 Cloudy with Mist and Fog 53 11.7 49 9.4 86 86 ESE 7 11 29.87 1012 6 10 0.00 0.00
9:38 am 09:38 Cloudy 55 12.8 49 9.4 80 80 SE 12 19 29.86 1011 10 16 0.00 0.00
9:53 am 09:53 Cloudy 55 12.8 49 9.4 80 80 S 12 19 29.87 1012 10 16 0.00 0.00
10:12 am 10:12 Cloudy 56 13.3 49 9.4 77 77 SSE 12 19 29.86 1011 10 16 0.00 0.00
10:53 am 10:53 Cloudy 58 14.4 49 9.4 72 72 SSE 14 22 29.86 1011 10 16 0.00 0.00
11:53 am 11:53 Cloudy 61 16.1 49 9.4 65 65 SSE 20 31 29.85 1011 10 16 0.00 0.00
12:53 pm 12:53 Cloudy 61 16.1 47 8.3 60 60 SSE 14 22 29.83 1010 10 16 0.00 0.00
1:53 pm 13:53 Cloudy 63 17.2 48 8.9 58 58 SSE 16 26 29.82 1010 10 16 0.00 0.00
2:53 pm 14:53 Cloudy 63 17.2 48 8.9 58 58 SSE 14 22 29.81 1010 10 16 0.00 0.00
3:53 pm 15:53 Cloudy 64 17.8 48 8.9 56 56 SE 15 24 29.80 1009 10 16 0.00 0.00
4:53 pm 16:53 Partly Cloudy 66 18.9 48 8.9 52 52 SSE 13 20 29.80 1009 10 16 0.00 0.00
5:53 pm 17:53 Sunny 66 18.9 48 8.9 52 52 S 15 24 29.79 1009 10 16 0.00 0.00
6:53 pm 18:53 Sunny 65 18.3 49 9.4 56 56 S 14 22 29.79 1009 10 16 0.00 0.00
7:53 pm 19:53 Mostly Sunny 62 16.7 49 9.4 62 62 SSE 12 19 29.81 1009 10 16 0.00 0.00
8:53 pm 20:53 Clear 59 15 48 8.9 67 67 SSE 10 17 29.81 1010 10 16 0.00 0.00
9:53 pm 21:53 Clear 57 13.9 47 8.3 69 69 SE 7 11 29.83 1010 10 16 0.00 0.00
10:53 pm 22:53 Clear 54 12.2 47 8.3 77 77 SSE 8 13 29.84 1010 10 16 0.00 0.00
11:53 pm 23:53 Clear 53 11.7 47 8.3 80 80 SSE 9 15 29.83 1010 10 16 0.00 0.00

Powered by AerisWeather